Wetbulb
50.51 51.32 52.13 52.58 52.52 53.45 53.14 53.23 52.77 53.27 52.84 51.78 51.41 51.93 51.91 52.95 53.47 53.87 54.78 55.04 55.60 55.73 55.38 55.44 55.27 55.11 54.29 55.30 55.39 55.53 56.13 57.46 59.02 60.30 61.52 63.71 66.27 67.24 66.33 66.63 66.61 67.71 68.95
49.55 50.26 51.26 52.35 51.01 52.08 52.84 52.66 52.86 53.09 52.90 52.24 52.19 52.14 52.07 52.61 52.74 53.32 53.72 54.33 54.54 55.09 54.40 54.60 54.40 54.35 53.28 53.41 53.13 53.18 53.04 55.35 56.98 55.15 57.28 57.80 61.71 61.93 64.67 66.42 67.13 67.26 67.58
48.09 49.33 49.91 51.60 51.26 50.78 51.24 51.91 52.61 53.09 53.40 53.68 52.77 52.90 52.71 51.99 51.18 51.42 51.74 52.73 53.54 53.92 54.22 53.95 54.05 53.90 53.11 51.91 52.05 51.83 51.74 51.70 54.41 57.22 54.74 52.73 53.05 55.42 61.42 62.13 64.30 63.66 63.17
48.04 49.23 49.90 50.47 51.19 52.29 52.89 52.12 52.40 52.77 52.86 54.16 52.91 52.28 50.51 49.54 51.05 51.27 51.86 51.98 52.96 53.07 53.12 53.65 53.43 53.54 52.82 52.28 51.77 51.31 51.42 52.27 51.01 53.67 54.48 53.45 53.49 51.19 52.14 57.13 58.46 59.31 59.12
48.56 48.56 49.63 50.48 51.76 52.67 53.46 53.74 53.49 53.49 53.66 54.11 53.67 52.72 51.85 51.82 52.45 52.52 52.52 52.42 52.50 52.87 52.59 52.95 53.05 53.03 52.66 52.48 51.87 51.35 50.53 51.17 51.22 51.50 51.69 52.87 53.65 53.73 50.31 50.41 52.48 55.07 57.79
48.81 49.03 50.25 50.87 51.34 52.89 53.77 54.13 53.60 52.91 53.88 54.34 54.27 53.51 52.89 52.50 51.95 52.43 51.76 51.93 52.11 51.84 52.53 52.43 52.94 52.77 52.78 52.08 51.61 51.50 50.67 49.98 50.80 51.15 51.65 50.88 50.07 50.23 49.49 47.52 50.09 50.53 53.51
48.85 49.42 49.17 49.78 50.54 51.02 52.32 53.49 53.40 52.49 53.63 54.46 54.64 54.46 53.83 53.51 52.77 52.40 51.85 51.90 51.60 51.82 51.89 52.32 52.37 51.85 52.08 52.32 52.17 51.53 50.82 50.03 49.48 50.23 50.01 51.71 51.20 52.01 51.31 49.83 48.75 47.79 50.75
49.01 49.56 49.81 50.35 50.26 50.83 51.73 52.47 52.55 52.47 53.21 53.98 54.14 54.76 54.74 53.77 53.21 53.07 53.14 52.75 52.42 52.56 53.19 52.64 52.40 52.10 51.72 51.74 52.30 51.33 50.77 50.49 50.01 49.66 49.91 49.81 50.82 50.92 50.81 49.83 48.08 45.71 47.19
48.82 49.21 50.10 50.69 50.77 51.16 51.66 52.65 52.98 52.52 53.06 53.64 54.39 54.56 54.88 54.58 53.89 54.18 54.40 53.68 54.00 53.10 52.92 52.97 52.33 52.37 52.09 51.59 51.59 50.88 50.59 50.45 50.30 49.90 49.64 49.21 49.81 50.45 50.98 50.56 49.66 46.79 43.50
48.75 49.29 49.93 50.35 51.07 51.46 52.08 52.82 52.96 52.12 52.64 53.20 53.60 53.56 54.01 54.36 54.57 54.53 53.92 54.05 54.26 54.32 53.57 53.31 52.83 52.34 52.19 51.93 51.25 50.85 50.95 50.17 49.79 49.06 48.33 48.62 48.99 48.89 49.77 49.61 49.27 48.48 46.34
48.47 49.20 49.80 50.25 50.33 50.81 50.58 50.64 50.55 50.25 50.36 51.02 51.54 52.03 52.58 53.07 53.67 53.70 53.86 53.67 53.90 53.53 53.08 52.81 52.43 51.89 51.46 51.94 51.27 50.78 50.66 49.44 49.25 49.34 48.49 47.85 48.33 47.89 48.09 48.34 47.84 47.33 46.81
48.25 48.42 49.02 48.79 48.36 47.96 48.41 48.79 49.19 48.97 49.28 49.83 50.20 50.79 51.25 51.19 51.22 51.26 51.63 52.45 52.10 52.60 52.36 52.18 51.81 51.50 51.31 51.26 50.74 49.93 50.11 48.97 48.31 48.49 48.11 47.21 46.82 46.99 47.24 46.93 46.43 46.23 46.54
46.34 46.79 46.48 46.25 46.31 47.12 47.59 47.73 47.98 47.95 48.13 48.39 48.90 49.29 49.02 48.94 48.99 49.40 49.93 50.44 50.71 50.72 50.94 50.84 50.48 50.46 50.90 50.78 50.85 50.48 49.87 49.56 49.17 48.72 47.93 47.34 47.04 45.99 45.97 45.84 45.26 45.15 44.64
44.75 45.04 45.07 45.52 45.77 45.85 45.89 45.76 45.79 46.00 45.58 45.74 45.75 45.54 45.59 45.62 45.95 46.63 46.76 47.08 47.53 47.78 48.47 49.35 49.54 49.99 49.96 49.87 49.89 49.64 49.70 49.57 49.34 49.94 48.55 47.71 46.77 45.75 45.37 44.64 44.49 43.97 43.32
42.91 43.33 43.79 44.56 43.45 43.08 43.31 42.96 42.66 42.76 42.87 42.40 42.58 42.67 43.54 43.86 43.70 43.83 44.04 44.27 44.54 44.79 45.43 45.20 45.78 46.73 47.59 48.21 48.99 48.80 48.85 49.02 48.88 50.26 48.58 48.10 46.49 43.14 42.28 43.04 43.46 43.49 42.01
41.76 42.26 42.43 41.53 40.36 39.98 40.35 40.47 40.72 41.09 41.89 41.37 41.20 41.81 41.84 41.56 41.55 41.64 41.64 41.66 41.88 42.08 42.79 42.76 43.15 43.91 44.05 40.24 40.09 41.76 46.31 46.57 46.88 48.43 48.84 48.05 43.67 41.82 37.20 36.31 36.24 38.15 41.24
41.00 40.49 39.39 38.82 39.32 39.69 40.12 40.01 40.20 41.07 40.76 40.67 40.39 39.99 40.14 39.65 39.97 40.16 39.93 39.77 39.74 40.63 40.73 40.90 41.30 41.47 42.57 38.93 39.00 38.72 43.62 44.00 45.76 46.21 46.80 46.98 46.24 41.93 43.11 36.42 36.02 35.44 35.09
39.24 38.76 38.99 39.17 39.23 39.82 40.09 40.34 40.40 40.23 39.76 39.31 38.60 38.85 38.56 38.16 38.81 38.99 38.93 38.98 39.38 39.18 38.94 38.90 39.15 39.46 40.29 37.16 37.40 37.20 42.11 43.49 44.43 45.26 45.27 45.80 46.78 44.81 42.07 41.56 41.00 40.43 40.28
39.67 39.47 39.56 38.95 39.12 38.74 38.83 38.59 38.71 38.81 37.98 37.27 36.83 37.27 37.62 37.37 37.57 37.47 37.80 38.27 38.27 37.95 37.51 37.64 37.43 38.15 38.85 36.05 35.81 36.82 39.09 40.16 41.77 43.65 44.07 44.26 45.12 41.67 37.57 40.61 39.72 39.85 40.31
39.86 39.17 38.81 38.72 38.20 38.21 38.59 37.57 37.12 36.39 35.85 36.06 36.44 37.38 37.71 37.15 36.72 37.17 37.00 37.90 38.04 37.39 37.73 37.35 38.31 37.03 38.37 36.40 35.63 36.24 37.28 36.16 36.56 41.13 41.59 39.49 42.36 37.11 34.38 38.51 37.90 37.33 38.70
39.65 39.51 39.01 37.84 38.56 39.28 38.46 36.37 35.92 35.12 36.03 36.69 36.91 37.09 37.46 37.05 37.14 37.06 37.41 37.03 36.84 36.70 36.82 36.34 37.46 37.88 37.24 37.99 35.82 35.59 35.62 35.35 34.49 35.10 37.42 39.64 35.63 34.57 34.48 34.71 37.87 36.78 38.24
39.44 38.76 37.99 38.18 39.20 39.07 37.43 35.04 34.37 36.03 36.45 36.60 36.30 36.39 36.64 36.19 35.89 35.82 35.79 36.17 35.84 35.41 34.63 34.39 35.60 37.37 37.80 35.30 35.67 35.05 34.51 35.09 34.41 33.65 34.80 37.38 36.78 34.99 34.66 34.13 34.09 33.65 32.75
38.32 38.06 38.00 37.88 38.70 38.04 36.61 34.13 35.19 35.92 35.76 35.64 35.47 35.48 35.70 35.29 35.20 34.46 34.43 34.82 34.89 33.60 32.94 33.02 34.16 34.43 36.20 37.13 34.67 34.45 34.42 34.10 33.96 34.95 33.92 33.53 35.34 35.62 32.60 32.75 33.50 32.08 34.99
36.65 37.89 37.23 36.22 35.53 36.59 35.59 35.52 35.71 35.87 35.34 34.60 34.59 34.90 34.23 33.76 34.15 34.25 34.46 33.55 32.67 31.71 30.96 31.26 32.28 33.67 35.07 35.66 36.67 36.30 34.77 34.56 34.54 33.64 34.43 32.42 31.39 31.75 32.31 32.66 32.67 35.76 37.65
37.46 36.91 35.27 34.65 34.69 35.83 35.23 36.04 35.64 35.50 34.32 34.09 33.94 33.78 33.49 32.95 32.62 33.09 33.18 32.31 33.06 31.06 29.10 30.75 31.87 31.01 31.09 32.22 31.83 31.58 33.10 33.67 33.46 32.64 33.73 33.62 33.44 33.26 33.08 34.33 36.13 36.66 37.05
35.26 34.50 34.91 35.00 34.98 35.33 35.05 35.73 35.78 35.14 34.07 32.83 33.03 32.83 32.10 31.96 31.98 31.46 31.65 31.98 30.56 30.04 29.59 29.66 29.99 31.38 29.99 30.09 30.32 30.34 31.33 32.33 32.47 33.04 32.88 32.35 32.54 32.90 33.80 34.35 35.25 35.62 34.38
MSLP
1030.83 1031.22 1031.77 1031.89 1031.78 1032.04 1032.05 1032.03 1031.79 1031.85 1031.43 1031.03 1030.75 1030.49 1030.38 1030.59 1030.57 1030.70 1030.96 1030.56 1030.32 1029.96 1029.43 1028.74 1028.33 1027.82 1027.44 1027.16 1026.74 1025.89 1024.87 1024.14 1023.89 1022.37 1021.28 1020.17 1019.72 1020.01 1020.00 1019.84 1019.53 1019.30 1019.35
1030.59 1031.24 1031.54 1031.75 1031.94 1032.02 1032.11 1032.00 1031.99 1031.96 1031.67 1031.37 1031.29 1031.12 1030.91 1030.87 1030.72 1030.85 1030.97 1031.14 1030.65 1030.25 1029.69 1029.47 1028.84 1028.70 1027.90 1027.82 1027.38 1026.78 1025.88 1024.68 1024.58 1024.37 1022.79 1020.45 1019.54 1020.00 1020.36 1019.59 1019.73 1020.50 1019.99
1030.13 1030.80 1031.20 1031.51 1031.73 1031.87 1032.17 1032.20 1032.21 1032.11 1032.16 1031.90 1031.09 1030.54 1030.22 1030.16 1030.38 1030.69 1030.67 1030.81 1030.76 1030.54 1030.26 1029.83 1029.45 1029.08 1028.63 1028.28 1027.97 1027.63 1026.96 1025.72 1024.98 1025.15 1024.55 1023.52 1022.47 1022.08 1020.23 1020.14 1020.58 1020.98 1021.00
1030.13 1030.38 1030.78 1031.22 1031.60 1031.85 1032.18 1032.23 1032.26 1032.17 1032.04 1032.15 1031.53 1031.34 1030.76 1030.55 1030.81 1030.69 1030.79 1030.58 1030.67 1030.43 1030.36 1030.11 1029.80 1029.45 1029.03 1028.90 1028.41 1028.10 1027.63 1026.88 1025.90 1025.41 1025.78 1025.99 1025.49 1024.25 1022.12 1021.25 1021.26 1021.61 1021.15
1029.59 1030.03 1030.47 1030.86 1031.31 1031.74 1032.05 1032.26 1032.32 1032.30 1032.19 1032.22 1032.16 1031.53 1031.21 1030.89 1030.68 1030.53 1030.66 1030.56 1030.50 1030.50 1030.26 1030.03 1029.82 1029.58 1029.19 1029.17 1028.95 1028.53 1028.07 1027.35 1026.86 1026.27 1026.31 1025.92 1025.32 1025.17 1024.81 1022.63 1022.12 1022.16 1021.29
1029.46 1029.93 1030.34 1030.82 1031.10 1031.70 1032.04 1032.17 1032.11 1031.91 1031.95 1032.08 1032.05 1031.95 1031.70 1031.36 1031.05 1030.79 1030.45 1030.25 1030.09 1030.12 1030.16 1029.98 1029.73 1029.59 1029.40 1029.17 1028.90 1028.73 1028.41 1028.09 1027.53 1027.00 1026.54 1026.40 1025.97 1025.29 1025.04 1024.49 1023.37 1022.60 1021.53
1029.03 1029.63 1030.04 1030.43 1030.79 1031.10 1031.48 1031.72 1031.74 1031.58 1031.57 1031.73 1031.77 1031.71 1031.60 1031.38 1031.14 1030.77 1030.45 1030.46 1030.03 1029.88 1029.82 1029.99 1029.67 1029.36 1029.34 1029.17 1029.03 1028.66 1028.35 1028.17 1027.87 1027.47 1026.94 1026.46 1026.09 1025.72 1024.98 1024.34 1023.59 1023.21 1022.01
1028.72 1029.18 1029.58 1030.00 1030.43 1030.90 1031.13 1031.31 1031.35 1031.21 1031.15 1031.27 1031.30 1031.28 1031.35 1031.12 1030.83 1030.62 1030.59 1030.39 1030.09 1029.78 1029.86 1029.78 1029.52 1029.23 1029.07 1028.91 1028.69 1028.32 1028.06 1027.96 1027.69 1027.45 1027.11 1026.76 1026.18 1025.82 1025.29 1024.67 1024.23 1023.12 1022.18
1028.30 1028.94 1029.48 1029.98 1030.32 1030.61 1030.89 1031.30 1031.49 1031.34 1031.22 1031.07 1031.01 1030.92 1030.89 1030.82 1030.61 1030.46 1030.32 1030.10 1029.94 1029.61 1029.42 1029.44 1029.30 1029.00 1028.78 1028.66 1028.47 1028.03 1027.84 1027.72 1027.36 1027.14 1026.90 1026.72 1026.21 1025.97 1025.73 1025.36 1024.72 1024.08 1022.66
1028.13 1028.75 1029.30 1029.87 1030.49 1030.75 1031.03 1031.39 1031.45 1031.27 1031.21 1031.21 1031.05 1030.72 1030.50 1030.39 1030.24 1030.12 1029.97 1029.77 1029.56 1029.41 1029.21 1029.01 1028.81 1028.59 1028.37 1028.27 1028.16 1027.72 1027.29 1027.24 1026.94 1026.62 1026.55 1026.39 1025.91 1025.83 1025.50 1025.45 1024.87 1024.37 1023.53
1028.19 1028.86 1029.50 1030.26 1030.63 1030.87 1031.09 1031.43 1031.58 1031.52 1031.54 1031.52 1031.34 1031.04 1030.70 1030.48 1030.17 1029.96 1029.74 1029.52 1029.27 1029.03 1028.80 1028.46 1028.16 1027.98 1027.76 1027.56 1027.40 1027.18 1026.88 1026.70 1026.43 1026.13 1026.03 1025.86 1025.75 1025.50 1025.07 1024.88 1024.68 1024.17 1023.72
1028.84 1029.57 1030.13 1030.64 1030.99 1031.30 1031.41 1031.64 1032.01 1032.05 1032.02 1031.85 1031.65 1031.40 1031.13 1030.85 1030.43 1030.06 1029.76 1029.44 1029.10 1028.67 1028.27 1027.95 1027.53 1027.21 1026.89 1026.67 1026.47 1026.25 1025.97 1025.79 1025.70 1025.54 1025.31 1025.07 1024.92 1024.84 1024.78 1024.51 1024.22 1023.97 1023.64
1029.55 1030.30 1030.91 1031.34 1031.81 1032.03 1032.11 1032.20 1032.50 1032.62 1032.56 1032.25 1032.00 1031.84 1031.64 1031.38 1031.01 1030.62 1030.16 1029.74 1029.30 1028.77 1028.18 1027.59 1027.12 1026.68 1026.28 1025.91 1025.52 1025.29 1025.15 1024.96 1024.66 1024.51 1024.44 1024.25 1024.23 1024.16 1024.03 1023.97 1023.84 1023.67 1023.39
1030.34 1031.11 1031.75 1032.18 1032.54 1032.80 1032.91 1032.95 1033.14 1033.20 1033.04 1032.69 1032.43 1032.33 1032.18 1031.82 1031.40 1031.04 1030.58 1030.08 1029.51 1028.80 1028.11 1027.51 1026.93 1026.44 1025.91 1025.38 1024.94 1024.58 1024.21 1023.91 1023.68 1023.49 1023.31 1023.24 1023.11 1023.24 1023.37 1023.46 1023.45 1023.44 1023.35
1031.15 1031.78 1032.36 1032.85 1033.23 1033.48 1033.55 1033.57 1033.65 1033.65 1033.48 1033.10 1032.77 1032.59 1032.40 1032.10 1031.66 1031.15 1030.74 1030.12 1029.56 1028.92 1028.27 1027.57 1026.90 1026.20 1025.51 1024.79 1024.67 1024.43 1023.74 1023.06 1022.50 1022.24 1022.26 1022.24 1022.10 1022.32 1022.50 1022.70 1022.77 1023.00 1022.99
1031.81 1032.47 1033.09 1033.56 1033.82 1034.06 1034.09 1034.04 1034.03 1033.93 1033.73 1033.34 1033.00 1032.75 1032.51 1032.12 1031.69 1031.33 1030.75 1030.16 1029.51 1028.92 1028.24 1027.58 1026.84 1026.12 1025.42 1025.27 1025.41 1025.11 1024.04 1023.09 1022.15 1021.11 1020.82 1020.92 1021.62 1021.94 1022.50 1022.85 1022.81 1022.94 1022.51
1032.43 1033.03 1033.59 1034.05 1034.29 1034.37 1034.40 1034.25 1034.10 1033.93 1033.74 1033.38 1032.95 1032.66 1032.40 1032.03 1031.64 1031.11 1030.58 1030.04 1029.52 1028.86 1028.19 1027.56 1026.93 1026.18 1025.54 1025.43 1025.37 1025.08 1024.05 1022.57 1021.41 1020.57 1019.91 1019.61 1019.77 1020.66 1021.26 1022.11 1022.42 1022.63 1022.83
1032.96 1033.53 1033.93 1034.32 1034.56 1034.56 1034.50 1034.41 1034.15 1033.85 1033.65 1033.33 1033.11 1032.86 1032.53 1032.13 1031.62 1031.03 1030.41 1029.91 1029.38 1028.72 1028.12 1027.59 1027.02 1026.26 1025.68 1025.57 1025.26 1024.80 1023.35 1021.62 1020.46 1019.85 1019.18 1018.64 1018.48 1018.76 1019.72 1020.11 1020.46 1020.96 1021.16
1033.39 1033.96 1034.41 1034.73 1034.74 1034.75 1034.69 1034.45 1034.04 1033.70 1033.47 1033.23 1033.14 1032.78 1032.42 1031.96 1031.47 1030.87 1030.31 1029.70 1028.97 1028.40 1027.99 1027.37 1026.70 1025.57 1024.67 1024.76 1024.84 1024.44 1023.10 1021.52 1020.16 1019.08 1018.34 1017.76 1017.39 1017.90 1018.49 1018.86 1018.96 1019.16 1019.29
1033.80 1034.21 1034.52 1034.71 1034.79 1034.85 1034.70 1034.39 1033.89 1033.65 1033.39 1033.40 1033.25 1032.92 1032.48 1031.90 1031.28 1030.70 1030.06 1029.34 1028.49 1027.53 1026.84 1026.08 1025.40 1024.51 1023.74 1023.36 1023.67 1023.61 1022.84 1021.54 1020.51 1019.17 1017.97 1016.85 1016.53 1017.03 1017.87 1018.26 1018.24 1018.47 1018.78
1033.93 1034.34 1034.48 1034.61 1034.53 1034.53 1034.43 1034.15 1033.75 1033.48 1033.54 1033.50 1033.16 1032.71 1032.29 1031.62 1030.87 1030.17 1029.47 1028.70 1027.86 1027.05 1026.25 1025.56 1024.72 1023.91 1023.27 1022.62 1022.56 1022.52 1022.25 1021.39 1020.26 1019.18 1017.96 1017.02 1015.96 1016.32 1017.15 1017.67 1017.75 1018.03 1018.23
1033.91 1034.17 1034.23 1034.21 1034.23 1034.27 1034.26 1033.96 1033.64 1033.50 1033.46 1033.17 1032.75 1032.24 1031.77 1031.25 1030.46 1029.76 1029.10 1028.28 1027.44 1026.47 1025.93 1025.27 1024.18 1023.38 1022.71 1022.23 1021.91 1021.60 1021.33 1020.90 1020.06 1018.93 1017.93 1016.93 1016.40 1016.26 1016.67 1017.00 1017.56 1017.99 1018.28
1033.95 1034.11 1034.13 1034.02 1033.91 1034.01 1034.14 1033.89 1033.57 1033.53 1033.35 1033.03 1032.35 1031.77 1031.32 1030.81 1030.25 1029.48 1028.60 1027.78 1027.05 1026.58 1026.08 1025.25 1024.22 1023.40 1022.67 1022.10 1021.54 1021.08 1020.46 1020.04 1019.49 1018.66 1017.70 1016.83 1016.14 1015.72 1015.93 1016.21 1016.92 1017.62 1017.71
1034.16 1034.15 1034.05 1033.88 1033.78 1033.79 1033.88 1033.69 1033.50 1033.38 1033.10 1032.52 1032.05 1031.46 1030.88 1030.51 1030.01 1029.28 1028.48 1027.74 1027.29 1026.86 1026.35 1025.58 1024.63 1023.65 1022.67 1021.94 1021.36 1020.77 1019.76 1019.28 1018.80 1018.19 1017.31 1016.54 1015.86 1015.64 1015.57 1015.58 1016.25 1016.93 1016.80
1034.16 1034.14 1034.02 1033.80 1033.59 1033.49 1033.49 1033.26 1033.09 1032.98 1032.70 1032.37 1031.83 1031.16 1030.70 1030.33 1029.69 1029.01 1028.35 1027.72 1027.38 1027.39 1027.12 1026.10 1025.17 1024.14 1022.92 1022.25 1022.04 1021.09 1019.35 1018.63 1018.25 1017.87 1017.11 1016.36 1015.84 1015.58 1015.46 1015.46 1015.63 1015.78 1015.91
1034.31 1034.12 1033.94 1033.68 1033.40 1033.26 1033.13 1032.88 1032.75 1032.74 1032.50 1031.95 1031.31 1030.89 1030.67 1030.17 1029.22 1028.33 1027.50 1027.01 1026.95 1026.73 1026.55 1025.99 1025.30 1024.28 1023.65 1022.56 1021.68 1020.73 1019.65 1018.58 1017.95 1017.35 1016.65 1016.10 1015.76 1015.47 1015.27 1015.21 1015.31 1015.48 1015.66
Wind_Speed
5 5 3 3 4 7 8 8 10 9 7 6 6 6 6 7 7 7 10 11 10 12 11 8 10 10 10 11 12 10 10 8 10 8 8 9 11 10 8 7 8 10 9
6 5 4 2 4 6 7 8 9 10 9 7 6 5 5 5 6 6 7 10 10 10 9 10 9 11 9 11 12 12 9 7 9 8 7 6 6 7 8 4 7 9 9
5 5 4 2 2 3 4 5 6 7 7 7 5 3 4 4 6 6 6 7 9 9 10 10 9 9 9 8 10 11 12 9 8 7 7 6 5 11 1 6 4 8 9
5 4 4 3 2 0 1 3 4 5 6 7 7 9 8 8 7 6 6 6 7 7 8 8 8 8 7 9 9 9 9 9 9 7 7 4 5 4 7 6 9 10 10
8 5 5 3 2 2 3 4 5 6 5 6 7 7 8 6 6 7 8 7 6 7 7 7 7 7 6 7 8 9 9 7 7 6 7 7 3 1 5 10 9 10 8
10 6 5 5 4 5 6 6 7 6 6 6 6 7 7 7 8 8 7 7 6 5 6 7 6 6 7 6 6 6 7 7 6 6 5 4 4 6 4 7 11 12 9
12 10 8 7 5 5 6 6 8 7 6 7 8 8 8 8 9 8 7 8 6 6 7 8 7 6 6 6 6 6 5 5 6 6 6 4 6 6 7 8 8 9 11
12 11 9 8 6 5 6 6 7 8 8 8 9 9 9 8 8 8 8 7 7 7 7 7 8 8 8 8 7 6 6 5 5 7 6 7 5 5 6 7 8 10 8
14 12 9 8 7 6 5 6 8 10 11 11 10 12 11 12 11 13 11 9 10 9 9 9 9 9 9 10 10 8 8 7 6 6 6 7 6 6 5 7 7 7 10
13 11 8 6 5 5 6 7 9 11 12 12 11 11 13 13 13 12 14 13 13 13 13 13 12 12 11 11 11 10 9 9 8 7 8 9 7 8 6 7 8 7 9
12 8 5 4 4 4 5 5 7 8 9 9 10 10 11 12 12 12 13 14 14 15 15 15 15 14 14 13 12 13 13 13 12 11 11 11 11 8 9 8 8 8 9
6 4 2 2 5 6 6 7 8 9 9 10 10 10 10 11 10 11 12 12 13 13 14 15 16 16 17 16 16 16 14 14 15 15 14 13 9 11 11 9 11 10 10
5 8 7 7 7 7 8 8 9 10 10 11 11 11 12 12 12 13 13 13 13 14 14 14 15 15 16 17 18 18 18 18 17 17 16 15 13 13 10 11 10 10 9
8 8 7 7 7 7 8 8 9 10 11 11 11 12 12 13 13 13 14 14 15 15 15 15 16 16 17 17 18 19 20 20 19 18 18 17 16 15 13 12 12 11 10
8 7 7 6 7 8 8 8 8 9 11 11 11 12 12 14 14 15 15 16 16 16 17 18 18 18 17 14 18 19 20 20 21 20 20 19 18 15 12 9 11 12 10
8 7 6 6 7 7 7 8 8 9 10 11 12 13 13 15 15 16 16 17 17 18 18 19 19 19 14 16 15 17 21 23 23 21 21 20 16 14 12 14 14 11 12
7 6 6 6 6 7 7 8 9 10 11 12 13 14 14 15 16 17 17 18 19 19 19 19 20 21 20 17 17 19 20 22 21 22 20 20 16 17 17 19 15 14 14
7 6 5 5 6 6 8 9 10 10 12 13 13 14 15 16 17 17 18 18 17 18 17 19 20 20 18 22 22 24 24 21 21 21 22 21 22 18 18 16 16 15 15
7 6 4 4 6 7 8 10 12 12 12 12 13 14 15 16 17 18 18 17 17 16 17 17 20 21 19 17 19 22 20 20 21 19 19 22 20 19 19 16 14 13 13
6 4 4 4 5 7 9 11 12 13 12 13 14 14 15 16 17 17 17 17 17 18 16 18 19 22 21 16 15 17 14 16 14 20 19 23 19 14 18 16 12 12 13
4 1 2 5 7 8 10 12 13 13 12 13 14 14 15 16 16 17 17 18 18 18 18 20 19 21 18 20 13 15 12 13 13 12 13 12 13 11 18 16 12 11 8
2 2 6 8 9 10 12 14 14 13 12 13 14 14 15 14 14 18 17 18 18 18 19 20 18 15 18 20 20 16 16 18 13 13 11 13 18 19 19 17 17 11 8
4 6 8 11 11 11 11 14 13 13 13 14 14 14 16 16 17 18 18 16 16 15 16 15 15 15 15 15 20 20 15 16 11 10 14 21 19 20 19 21 17 14 10
6 8 11 13 13 12 12 13 13 13 13 14 15 15 15 15 17 15 14 14 14 14 15 15 14 14 14 13 13 17 13 15 10 10 10 8 6 4 5 6 10 8 11
8 10 12 13 14 12 13 13 12 12 13 14 14 15 13 15 16 14 14 14 15 13 14 14 14 15 14 14 19 21 14 9 8 9 7 5 3 3 4 4 6 7 7
11 11 13 14 14 13 13 13 12 12 13 14 13 12 12 13 14 14 14 16 12 15 18 20 15 12 19 23 24 25 25 19 13 8 7 6 4 4 3 3 3 4 5
Wind_Direction
124 111 93 81 57 59 55 45 49 42 30 35 28 35 35 28 31 26 22 21 19 15 18 13 15 7 19 12 9 357 355 351 354 315 330 281 245 231 259 268 289 286 280
172 166 163 127 58 54 40 40 38 37 26 38 36 25 22 38 18 19 19 14 16 18 18 12 14 14 7 15 11 7 353 4 12 356 297 331 316 53 288 333 340 1 332
173 171 178 155 97 70 42 24 32 26 36 357 26 47 86 73 36 18 14 24 10 16 13 16 12 9 8 11 8 8 6 348 11 39 354 339 350 331 308 346 9 4 342
204 200 192 182 176 77 333 311 351 2 32 359 23 19 28 20 20 15 10 355 10 14 15 9 10 11 5 8 5 10 355 355 4 359 20 353 311 342 318 342 327 342 322
197 198 197 191 207 179 265 284 297 307 321 334 339 344 13 15 12 14 2 4 2 360 2 2 3 4 5 5 1 359 2 357 348 1 349 342 325 55 309 309 334 324 326
192 205 190 190 214 208 242 255 268 282 290 295 308 315 329 338 341 353 343 358 354 346 357 347 352 347 344 351 346 351 360 353 346 343 353 339 337 329 323 304 310 323 319
187 198 193 199 211 205 223 243 253 271 274 278 285 293 300 305 304 316 327 325 334 339 344 332 333 332 331 323 323 328 329 339 336 338 331 336 301 320 309 305 320 307 308
189 199 194 195 197 213 235 252 278 288 300 297 293 289 286 287 297 296 302 299 309 310 317 308 310 312 312 308 302 298 306 311 314 311 319 309 287 304 306 309 309 313 311
189 198 197 207 223 247 265 297 303 301 303 303 298 291 285 279 280 285 284 286 291 287 283 290 290 292 293 295 296 287 290 288 285 294 291 289 295 294 308 294 297 299 304
189 198 205 212 256 282 293 295 298 301 307 309 304 297 295 291 286 283 281 283 286 287 287 287 286 285 281 276 277 278 275 272 278 276 278 282 288 286 270 271 271 273 283
191 196 205 225 263 313 350 6 5 356 355 349 342 329 317 310 303 296 294 293 293 287 285 283 282 277 276 273 268 268 273 271 269 266 266 272 276 274 281 271 268 268 269
170 203 199 114 84 61 44 38 20 9 359 352 352 352 347 341 334 326 319 314 305 299 291 287 282 279 275 272 268 266 266 261 260 260 256 258 260 264 268 269 269 272 275
140 113 100 83 66 49 39 29 20 8 360 356 354 357 354 349 343 338 333 327 321 314 307 302 295 290 283 279 272 265 263 260 254 252 253 252 253 255 259 262 265 269 266
120 108 93 75 54 38 28 20 15 6 357 354 353 355 349 343 339 335 332 328 326 317 314 309 303 297 292 287 282 276 268 263 259 254 247 247 241 243 248 251 256 259 263
115 99 84 66 45 32 22 17 11 4 356 353 349 348 342 335 332 331 327 325 322 319 316 314 309 307 300 289 293 292 284 278 266 258 247 244 241 242 243 240 240 247 250
116 98 81 60 43 29 15 11 3 356 346 342 336 335 333 330 328 325 322 320 319 317 314 310 308 305 303 320 311 295 292 286 282 271 255 246 227 218 213 227 242 266 258
116 100 83 60 34 19 6 357 348 341 338 333 331 331 330 327 325 324 322 321 319 315 314 313 313 310 308 312 322 311 303 292 281 274 261 251 239 208 224 214 216 222 235
123 105 81 50 23 5 358 344 337 330 326 324 329 328 328 323 321 318 316 317 315 314 316 314 312 311 309 319 321 318 305 293 281 271 264 251 245 222 215 224 210 221 222
111 107 85 32 2 355 344 332 323 327 324 328 326 325 323 321 320 319 320 315 313 314 310 304 303 295 300 304 311 309 312 307 300 283 269 256 241 239 188 217 221 228 234
134 109 40 354 333 334 330 325 322 324 325 329 323 322 322 319 318 317 316 312 307 305 306 299 295 302 297 304 289 299 307 307 306 301 291 258 235 210 173 208 218 229 239
141 93 306 316 329 328 329 319 322 321 330 321 318 316 314 314 313 314 314 311 310 308 310 311 307 305 305 306 299 301 303 302 305 296 292 286 230 162 173 196 220 232 245
179 299 315 320 323 325 325 320 318 327 320 316 312 314 316 315 315 317 313 312 309 310 315 311 306 308 313 317 313 301 291 293 300 296 289 274 241 214 200 195 217 221 201
334 330 318 317 317 323 321 313 318 319 317 312 312 317 319 318 324 315 313 311 312 318 310 310 310 311 311 314 311 307 296 292 293 294 294 283 273 219 212 207 212 223 213
322 320 318 317 316 318 316 311 316 316 312 311 316 318 317 325 315 314 314 313 315 311 312 312 311 309 309 321 330 314 303 299 297 305 302 296 272 224 222 188 204 218 222
322 326 317 314 313 315 312 313 317 318 313 316 313 317 320 319 316 312 301 308 307 310 307 302 305 308 318 316 322 328 312 286 296 309 301 290 265 216 196 201 211 217 227
325 319 317 314 314 313 309 312 318 318 313 310 313 321 315 314 307 313 311 299 282 288 290 285 288 304 301 311 321 328 332 328 302 298 297 295 284 272 251 223 206 208 223